TimeCST,TemperatureF,Dew PointF,Humidity,Sea Level PressureIn,VisibilityMPH,Wind Direction,Wind SpeedMPH,Gust SpeedMPH,PrecipitationIn,Events,Conditions,WindDirDegrees,DateUTC
12:55 AM,19.4,15.8,86,30.39,10.0,East,3.5,-,N/A,,Clear,90,2013-11-28 06:55:00
1:55 AM,19.4,15.8,86,30.40,10.0,Calm,Calm,-,N/A,,Clear,0,2013-11-28 07:55:00
2:15 AM,19.4,17.6,93,30.40,10.0,Calm,Calm,-,N/A,,Clear,0,2013-11-28 08:15:00
2:35 AM,19.4,17.6,93,30.41,10.0,Calm,Calm,-,N/A,,Clear,0,2013-11-28 08:35:00
2:55 AM,19.4,17.6,93,30.42,10.0,Calm,Calm,-,N/A,,Clear,0,2013-11-28 08:55:00
3:15 AM,19.4,17.6,93,30.41,10.0,Calm,Calm,-,N/A,,Clear,0,2013-11-28 09:15:00
3:35 AM,21.2,17.6,86,30.42,10.0,Calm,Calm,-,N/A,,Clear,0,2013-11-28 09:35:00
3:55 AM,19.4,17.6,93,30.43,10.0,Calm,Calm,-,N/A,,Clear,0,2013-11-28 09:55:00
4:15 AM,21.2,17.6,86,30.43,10.0,Calm,Calm,-,N/A,,Clear,0,2013-11-28 10:15:00
4:35 AM,19.4,17.6,93,30.44,10.0,Calm,Calm,-,N/A,,Clear,0,2013-11-28 10:35:00
4:55 AM,19.4,17.6,93,30.44,10.0,SE,3.5,-,N/A,,Clear,130,2013-11-28 10:55:00
5:30 AM,-9999,-9999,N/A,30.43,10.0,ESE,3.5,-,N/A,,Clear,110,2013-11-28 11:30:00
5:55 AM,17.6,15.8,93,30.44,10.0,ESE,3.5,-,N/A,,Clear,110,2013-11-28 11:55:00
6:55 AM,19.4,15.8,86,30.43,10.0,ESE,3.5,-,N/A,,Clear,110,2013-11-28 12:55:00
7:55 AM,24.8,17.6,74,30.45,10.0,SSE,3.5,-,N/A,,Partly Cloudy,150,2013-11-28 13:55:00
8:55 AM,28.4,19.4,69,30.46,10.0,South,4.6,-,N/A,,Partly Cloudy,170,2013-11-28 14:55:00
9:55 AM,33.8,19.4,56,30.47,10.0,SSW,5.8,-,N/A,,Scattered Clouds,210,2013-11-28 15:55:00
10:55 AM,37.4,19.4,48,30.46,10.0,SSE,5.8,-,N/A,,Mostly Cloudy,150,2013-11-28 16:55:00
11:55 AM,41.0,19.4,42,30.44,10.0,South,5.8,-,N/A,,Mostly Cloudy,170,2013-11-28 17:55:00
12:55 PM,42.8,19.4,39,30.41,10.0,SSW,5.8,-,N/A,,Mostly Cloudy,210,2013-11-28 18:55:00
1:55 PM,44.6,21.2,39,30.39,10.0,SW,11.5,-,N/A,,Mostly Cloudy,220,2013-11-28 19:55:00
2:55 PM,46.4,21.2,37,30.38,10.0,Variable,6.9,-,N/A,,Mostly Cloudy,0,2013-11-28 20:55:00
3:55 PM,44.6,21.2,39,30.41,10.0,SW,8.1,-,N/A,,Mostly Cloudy,220,2013-11-28 21:55:00
4:55 PM,39.2,23.0,52,30.41,10.0,SW,3.5,-,N/A,,Mostly Cloudy,230,2013-11-28 22:55:00
5:55 PM,39.2,24.8,56,30.42,10.0,Calm,Calm,-,N/A,,Mostly Cloudy,0,2013-11-28 23:55:00
6:55 PM,37.4,24.8,60,30.44,10.0,Calm,Calm,-,N/A,,Scattered Clouds,0,2013-11-29 00:55:00
7:55 PM,37.4,24.8,60,30.45,10.0,Calm,Calm,-,N/A,,Partly Cloudy,0,2013-11-29 01:55:00
8:55 PM,35.6,24.8,65,30.46,10.0,Calm,Calm,-,N/A,,Clear,0,2013-11-29 02:55:00
9:55 PM,33.8,24.8,70,30.47,10.0,Calm,Calm,-,N/A,,Clear,0,2013-11-29 03:55:00
10:55 PM,30.2,24.8,80,30.49,10.0,Calm,Calm,-,N/A,,Clear,0,2013-11-29 04:55:00
11:55 PM,28.4,24.8,86,30.48,10.0,Calm,Calm,-,N/A,,Clear,0,2013-11-29 05:55:00